Epoch 2002 Feb. 15.0 TT = JDT 2452320.5
T 2002 Feb. 13.75021 TT MPC
q 5.7869329 (2000.0) P Q
z +0.0001993 Peri. 255.16670 -0.25226716 +0.90520140
+/-0.000000 Node 20.01255 +0.33341462 +0.41310992
e 0.9988467 Incl. 92.02986 -0.90840298 -0.09975275
From 153 observations 1999 Mar. 13-2005 Aug. 28, mean residual 0".6.
Finding Charts
Magnitudes Graph
m1 = 1.8 + 5 log d + 12.0 log r(t - 150)
The orbital elements are published on M.P.E.C. 2011-A08.
The charts are made with StellaNavigator Ver.2.0 for Windows (AstroArts / ASCII).
The magnitudes graphs are made with Comet for Windows.
Copyright(C) Seiichi Yoshida (comet@aerith.net). All rights reserved.